Location: Unspecified
(0.0000°N, 0.0000°E)
Time: 21:14:11
(UTC+00:00)

CZ-3C DEB - Pass Details

Date: 07 March 2026
Orbit: 440 x 28021 km, 21.3° (Epoch: 10 April)

Event Time Altitude Azimuth Distance (km) Brightness Sun altitude
Rises 12:27:44 0° 268° (W) 4,787 ? 83.4°
Reaches altitude 10° 12:29:40 10° 272° (W) 4,381 ? 83.1°
Maximum altitude 12:44:04 62° 353° (N) 5,596 ? 80.3°
Enters shadow 19:38:32 22° 95° (E) 12,911 ? -21.8°
